FREGAT DEB, 47332

Orbit data source: Space-Track

FREGAT DEB, 47332 is space debris in LEO originally from a launch on Mon, 18 Jul 2011 UTC launched from the Tyuratam Missile And Space Complex (TTMTR). Debris objects in space refer to the collection of defunct objects orbiting the Earth. Examples of debris include non-operational satellites, rocket bodies, and fragments generated from explosions, collisions, or faulty payload assembly.

Loading next visibility...
Identifier
47332, 2011-037NP
Orbit
LEO
Country
Flag of CISCIS
Related business
Manufacturer
Lavochkin
Mission
Spacecraft
Bus & Motor
Unknown
Mass
Unknown
Launch date (UTC)
2011-07-18 (15 years ago)
Launch vehicle
Unknown
Launch site
Tyuratam Missile And Space Complex (TTMTR)
Object type
Payload
Rocket body
Debris
Shape & HBR
Unknown shape, 0.1 m
Radar Cross Section
Medium (>0.1 m² and <1 m²)

Expand to show TLE details & history
Last TLE update: 6 days ago

TLE from 6 days ago
0 FREGAT DEB
1 47332U 11037NP  26167.31202922  .00001052  00000-0  25460-3 0  9992
2 47332  51.4176 188.3897 1884853 316.6630  30.0135 11.29737232223861
Epoch: 2026-06-16T07:29Z
TLE epoch observation values (Epoch: 2026-06-16T07:29:19.324Z)
Latitude
-0°
Longitude
171.47331°
Altitude
740.028 km
Speed
8.033 km/s
True Right ascension
12h 33m 33s
True Declination
0° 00' 00"
Sunlit
Object was in daylight at epoch
Visualization orbit readout
Latitude
Unknown
Longitude
Unknown
Altitude
Unknown
Speed
Unknown
Apparent Right ascension
Unknown
Apparent Declination
Unknown
Sunlit
N/A
Visualization observer readout
Local Sidereal Time
21:40:10
Azimuth
Unknown
Elevation
Unknown
Doppler factor
Unknown
Orbital elements
Apogee altitude
3,593.54 km
Perigee altitude
430.666 km
Semi-major axis
8,390.24 km
Eccentricity
0.18849
Inclination
51.4176°
RAAN
188.3897°
Arg. of periapsis
316.663°
True anomaly
43.42394°
Mean anomaly
30.0135°
Eccentric anomaly
36.42602°
Mean motion
2.82411 °/min
Orbital period
127.47 mins
BSTAR
0.0002546
Loading maneuver chart data...
Computing Atmospheric mass density...
Loading historical data...
Loading historical data...
Loading historical data...
Loading historical data...
Loading historical data...
Loading historical data...
Loading historical data...

Documentation

Showing up to 5 results
|